Home > Weather > Salisbury > Past weeks

Flag for United Kingdom Past Weather in Salisbury, England, United Kingdom — Yesterday and Last 2 Weeks

Now
63 °F

Passing clouds.


Feels Like: 63 °F
Forecast: 57 / 67 °F
Wind: 8 mph from West

Location: Boscombe Down

Current Time: Jul 27, 2016 at 10:11:16 PM

Latest Report: Jul 27, 2016 at 8:50 PM


Visibility: N/A

Pressure: 30.01 "Hg

Humidity: 77%

Dew Point: 55 °F

Location of SalisburyLocation

Past Weather in Salisbury — Graph

°F

Salisbury Temperature Yesterday

Maximum temperature yesterday: 68 °F (at 12:50 PM)
Minimum temperature yesterday: 50 °F (at 5:50 AM)
Average temperature yesterday: 60 °F

High & Low Weather Summary for the Past Weeks

 TemperatureHumidityPressure
High88 °F (Jul 19, 1:50 PM)100% (Jul 13, 3:50 AM)30.33 "Hg (Jul 13, 3:50 AM)
Low48 °F (Jul 13, 5:50 AM)40% (Jul 19, 1:50 PM)29.71 "Hg (Jul 20, 6:50 AM)
Average64 °F79%30.11 "Hg
* Reported Jul 12 8:50 PM — Jul 27 8:50 PM, Salisbury, Weather by CustomWeather, © 2016

Note: Actual official high and low records may vary slightly from our data, if they occured in-between our weather recording intervals... More about our weather records

Advertising

Salisbury Weather History for the Previous 24 Hours

Scroll right to see more
 ConditionsComfort  
Time TempWeatherWind HumidityBarometerVisibility
8:50 PM
Wed, Jul 27
63 °FPassing clouds.8 mph77%30.01 "HgN/A
7:50 PM66 °FMild.14 mph73%29.98 "HgN/A
6:50 PM70 °FMild.14 mph64%29.98 "HgN/A
5:50 PM72 °FPartly sunny.13 mph61%29.98 "HgN/A
4:50 PM73 °FScattered clouds.16 mph57%29.98 "HgN/A
3:50 PM73 °FScattered clouds.13 mph57%29.98 "HgN/A
2:50 PM72 °FScattered clouds.13 mph65%29.98 "HgN/A
1:50 PM70 °FBroken clouds.13 mph73%29.98 "HgN/A
12:50 PM68 °FBroken clouds.9 mph78%30.01 "HgN/A
11:50 AM64 °FMostly cloudy.12 mph88%30.01 "HgN/A
10:50 AM63 °FDrizzle. Mostly cloudy.13 mph94%29.98 "HgN/A
9:50 AM63 °FMostly cloudy.10 mph94%29.98 "HgN/A
8:50 AM63 °FMostly cloudy.12 mph88%29.98 "HgN/A
7:50 AM61 °FMostly cloudy.8 mph100%29.98 "HgN/A
6:50 AM61 °FDrizzle. Mostly cloudy.8 mph100%29.98 "Hg2 mi
5:50 AM61 °FMostly cloudy.9 mph100%30.01 "HgN/A
4:50 AM61 °FPartly cloudy.9 mph100%30.01 "Hg6 mi
3:50 AM61 °FPassing clouds.10 mph94%30.04 "Hg2 mi
2:50 AM61 °FPartly cloudy.10 mph94%30.04 "HgN/A
1:50 AM61 °FPartly cloudy.9 mph94%30.07 "HgN/A
12:50 AM59 °FPassing clouds.8 mph94%30.07 "HgN/A
11:50 PM
Tue, Jul 26
59 °FPassing clouds.6 mph94%30.09 "HgN/A
10:50 PM61 °FPassing clouds.7 mph88%30.09 "HgN/A
Weather by CustomWeather, © 2016

See weather overviewHow to use our weather pages